Weather History for Clarksburg, WV

Change the Weather History Date:

Tuesday, August 6, 2013

  Actual Average Record
Temperature  
Mean Temperature 68 °F -  
Max Temperature 81 °F 82 °F 97 °F (1930)
Min Temperature 57 °F 60 °F 45 °F (1957)
Cooling Degree Days 4    
Growing Degree Days 18 (Base 50)    
Moisture  
Dew Point 58 °F    
Average Humidity 70    
Maximum Humidity 97    
Minimum Humidity 42    
Precipitation  
Precipitation 0.00 in - - ()
Sea Level Pressure  
Sea Level Pressure 29.99 in    
Wind  
Wind Speed 1 mph (SE)    
Max Wind Speed 6 mph    
Max Gust Speed -    
Visibility 9 miles    
Events      
Averages and records for this station are not official NWS values.
T = Trace of Precipitation, MM = Missing Value Source: NWS Daily Summary

Daily Weather History Graph

Daily Weather History Graph

Search for Another Location

Airport:

Trip Planner

Search our weather history database for the weather conditions in past years. The results will help you decide how hot, cold, wet, or windy it might be!

Date:

Astronomy

Aug. 06, 2013 Rise Set
Actual Time 6:25 AM EDT 8:27 PM EDT
Civil Twilight 5:56 AM EDT 8:56 PM EDT
Nautical Twilight 5:20 AM EDT 9:32 PM EDT
Astronomical Twilight 4:41 AM EDT 10:11 PM EDT
Moon 6:15 AM EDT (8/6) 8:01 PM EDT (8/6)
Length of Visible Light 15h 00m
Length of Day
14h 01m
Waning Crescent, 0% of the Moon is Illuminated
Aug 6
Waning Crescent
Aug 6
New
Aug 14
First Quarter
Aug 20
Full
Aug 28
Last Quarter

Hourly Weather History & Observations

Time (EDT) Temp. Heat Index Dew Point Humidity Pressure Visibility Wind Dir Wind Speed Gust Speed Precip Events Conditions
12:53 AM 63.0 °F - 59.0 °F 87% 30.00 in 10.0 mi Calm Calm - N/A   Partly Cloudy
1:53 AM 62.1 °F - 59.0 °F 90% 30.00 in 10.0 mi Calm Calm - 0.00 in   Clear
2:53 AM 61.0 °F - 59.0 °F 93% 29.99 in 9.0 mi Calm Calm - N/A   Scattered Clouds
3:53 AM 61.0 °F - 59.0 °F 93% 29.99 in 7.0 mi Calm Calm - N/A   Clear
4:53 AM 57.9 °F - 57.0 °F 97% 29.99 in 4.0 mi NE 3.5 mph - N/A   Partly Cloudy
5:53 AM 60.1 °F - 57.9 °F 93% 29.99 in 6.0 mi Calm Calm - N/A   Overcast
6:53 AM 59.0 °F - 57.0 °F 93% 29.99 in 4.0 mi Calm Calm - N/A   Partly Cloudy
7:53 AM 63.0 °F - 59.0 °F 87% 30.01 in 8.0 mi Calm Calm - N/A   Partly Cloudy
8:53 AM 64.9 °F - 59.0 °F 81% 30.02 in 10.0 mi Calm Calm - N/A   Clear
9:53 AM 70.0 °F - 57.9 °F 65% 30.02 in 10.0 mi Calm Calm - N/A   Clear
10:53 AM 72.0 °F - 59.0 °F 64% 30.02 in 10.0 mi North 3.5 mph - N/A   Clear
11:53 AM 73.0 °F - 55.9 °F 55% 30.01 in 10.0 mi Variable 3.5 mph - N/A   Partly Cloudy
12:53 PM 75.0 °F - 55.9 °F 51% 30.00 in 10.0 mi Calm Calm - N/A   Partly Cloudy
1:53 PM 77.0 °F - 55.0 °F 47% 29.99 in 10.0 mi South 5.8 mph - N/A   Clear
2:53 PM 78.1 °F - 54.0 °F 43% 29.99 in 10.0 mi East 3.5 mph - N/A   Clear
3:53 PM 79.0 °F - 57.0 °F 47% 29.99 in 10.0 mi South 4.6 mph - N/A   Clear
4:53 PM 79.0 °F - 54.0 °F 42% 29.96 in 10.0 mi Calm Calm - N/A   Clear
5:53 PM 80.1 °F 80.2 °F 55.9 °F 43% 29.97 in 10.0 mi SSW 4.6 mph - N/A   Clear
6:53 PM 80.1 °F 80.2 °F 55.9 °F 43% 29.97 in 10.0 mi Calm Calm - N/A   Clear
7:53 PM 77.0 °F - 59.0 °F 54% 29.96 in 10.0 mi Calm Calm - N/A   Scattered Clouds
8:53 PM 71.1 °F - 60.1 °F 68% 29.96 in 10.0 mi Calm Calm - N/A   Clear
9:53 PM 68.0 °F - 61.0 °F 78% 29.98 in 10.0 mi Calm Calm - N/A   Scattered Clouds
10:53 PM 66.0 °F - 62.1 °F 87% 29.97 in 10.0 mi Calm Calm - N/A   Partly Cloudy
11:53 PM 64.9 °F - 62.1 °F 90% 29.97 in 10.0 mi Calm Calm - N/A   Mostly Cloudy